DMSP 5D-2 F15 DEB

Satellite information

Favourite Embed

Satellite Type and Status

DEBRISIN ORBIT

Key statistics

Satellite DMSP 5D-2 F15 DEB at a glance.

Uptime

9279

Days in orbit

Revolutions

≈ 14.5

Per day

Orbit

SSO

Sun Synchronous Orbit

Inclination

98.2

Latest

Satellite identification and parameters

Extended collection of information and parameters for DMSP 5D-2 F15 DEB.

Object identification

Identified? True

Debris? True

Object name: DMSP 5D-2 F15 DEB

International designator: 1999-067B

Object number (NORAD): 25992

Object ID (CCSDS): 25992

Country: UNITED STATES OF AMERICA (US)

Current information (Y/N): Y

RCS size: SMALL

Orbital parameters

Period: 99.603 minutes

Inclination: 98.1993 deg

SMA: 7117.749 km

Apoapsis: 745.242 km

Periapsis: 733.986 km

RAAN: 147.8723 deg

Eccentricy: 0.0007907

Argument of periapsis: 114.4607 deg

Mean anomaly: 11.6266 deg

Mean motion: 14.45735136 rev/day

Mean motion (dot): 0.00004024 rev/day2

B* drag term: 0.0011468 1/REarth

Two-line elements (TLE)

Creation date: May 8, 2025, 3:01 a.m.

Reference frame: TEME

Reference center: EARTH

Epoch: May 7, 2025, 12:34 p.m. UTC

TLE line 0: 0 DMSP 5D-2 F15 DEB

TLE line 1: 1 25992U 99067B 25127.52363407 .00004024 00000-0 11468-2 0 9997

TLE line 2: 2 25992 98.1993 147.8723 0007907 114.4607 11.6266 14.45735136325287

Live tracking on map

Real-time ground track for satellite DMSP 5D-2 F15 DEB.

In-orbit conjunctions

A list of the most updated potential collisions computed for object DMSP 5D-2 F15 DEB.

Target Orbit TCA Probability of collision Miss distance Type
IRIDIUM 911 LEO 2025-01-25 00:51:15 0.0002190726 648.0 (m) PAYLOAD
METEOR 2-5 DEB LEO 2024-09-26 04:45:20 0.0001582542 697.0 (m) DEBRIS

Associated space launch

DMSP-5D3 (Defense Meteorological Satellite Program Block 5D3) is the eleventh and most recent version of the military meteorological satellites of the Defense Meteorological Satellite Program.

DMSP 5D-2 F15 DEB was lifted into orbit during the mission ‘Titan II SLV | DMSP F-15’, on board a Titan II SLV space rocket.

The launch took place on Dec. 12, 1999, 5:38 p.m. from Space Launch Complex 4W.

For more information about the launch, click the button.

Launch to space Titan II SLV | DMSP F-15
Titan II SLV | DMSP F-15

Agency: N/A

Status: Launch Successful

Launch date: Dec. 12, 1999, 5:38 p.m. UTC

Rocket: Titan II SLV

Launch pad: Space Launch Complex 4W

Location: Vandenberg SFB, CA, USA

...

Latest news about this satellite

There are no fresh news available about this satellite. Check back as we update our databases every day.


Newsletter sign-up

Weekly statistics, charts and insights to help you stay on top of the space industry.